DateTime,Index
2004111318,0.0
2004111400,0.0
2004111406,0.0
2004111412,1225.0
2004111418,1225.0
2004111500,1225.0
2004111506,1225.0
2004111512,1225.0
2004111518,1225.0
2004111600,1600.0
2004111606,2025.0
2004111612,3025.0
2004111618,3025.0
2004111700,3600.0
2004111706,4225.0
2004111712,5625.0
2004111718,8100.0
2004111800,11025.0
2004111806,13225.0
2004111812,13225.0
2004111818,11025.0
2004111900,11025.0
2004111906,8100.0
2004111912,7225.0
2004111918,6400.0
2004112000,5625.0
2004112006,4225.0
2004112012,3600.0
2004112018,4225.0
2004112100,4225.0
2004112106,4900.0
2004112112,6400.0
2004112118,8100.0
2004112200,7225.0
2004112206,7225.0
2004112212,5625.0
2004112218,4225.0
2004112300,4225.0
2004112306,4225.0
2004112312,3600.0
2004112318,3025.0
2004112400,3025.0
2004112406,2500.0
2004112412,1600.0
2004112418,1600.0
2004112500,1600.0
2004112506,1225.0
2004112512,0.0
2004112518,0.0
2004112600,0.0
